Overview Statistics Trail Chart Weather Telemetry Raw packets
 

This is the latest recevied weather packets stored in our database for station/object N7IGG. If no packets are shown the sender has not sent any weather packets the latest 10 day(s).

<< 80 81 82 83 84 85 86 >>
Time Temp. Humidity Pressure Rain* Wind** Luminosity Snow
1777596639 20.56° C 59% 1016.2 hPa 0 mm - 280 W/m² -
1777596335 20.56° C 61% 1016.2 hPa 0 mm - 317 W/m² -
1777596034 20.56° C 61% 1016.3 hPa 0 mm - 323 W/m² -
1777595733 19.44° C 64% 1016.3 hPa 0 mm - 306 W/m² -
1777595429 20° C 62% 1016.2 hPa 0 mm - 336 W/m² -
1777595126 20.56° C 59% 1016.4 hPa 0 mm - 393 W/m² -
1777594822 21.67° C 55% 1016.4 hPa 0 mm - 412 W/m² -
1777594518 21.67° C 53% 1016.4 hPa 0 mm - 410 W/m² -
1777594214 22.22° C 54% 1016.6 hPa 0 mm - 450 W/m² -
1777593910 23.33° C 50% 1016.5 hPa 0 mm - 410 W/m² -
1777593607 22.78° C 52% 1016.5 hPa 0 mm - 443 W/m² -
1777593302 21.11° C 58% 1016.4 hPa 0 mm - 446 W/m² -
1777592997 20° C 60% 1016.7 hPa 0 mm - 480 W/m² -
1777592691 21.67° C 55% 1016.6 hPa 0 mm - 449 W/m² -
1777592387 21.11° C 58% 1016.6 hPa 0 mm - 372 W/m² -
1777592083 21.67° C 56% 1016.9 hPa 0 mm - 267 W/m² -
1777591780 20.56° C 60% 1016.8 hPa 0 mm - 276 W/m² -
1777591476 20.56° C 60% 1017.2 hPa 0 mm - 327 W/m² -
1777591172 20° C 63% 1017.2 hPa 0 mm - 344 W/m² -
1777590866 20° C 62% 1017.3 hPa 0 mm - 209 W/m² -
1777590563 20.56° C 60% 1017.3 hPa 0 mm - 318 W/m² -
1777590260 21.67° C 57% 1017.3 hPa 0 mm - 247 W/m² -
1777589958 21.67° C 60% 1017.4 hPa 0 mm - 470 W/m² -
1777589654 21.11° C 63% 1017.2 hPa 0 mm - 480 W/m² -
1777589351 20° C 65% 1017.4 hPa 0 mm - 492 W/m² -

* Rain latest hour (hover to see other rain measurements)
** Current wind speed in m/s (hover to see current wind gust speed)